Location: Champignolles
(47.0543°N, 4.5663°E)
Time: 07:10:26
(UTC+00:00)

Cosmos 923 Rocket - Pass Details

Date: 12 April 2021
Orbit: 759 x 785 km, 74.0° (Epoch: 13 May)

Event Time Altitude Azimuth Distance (km) Brightness Sun altitude
Rises 01:22:05 0° 348° (NNW) 3,230 7.9 -30.0°
Reaches altitude 10° 01:25:37 10° 13° (NNE) 2,300 7.3 -29.7°
Maximum altitude 01:28:26 15° 46° (NE) 2,002 6.9 -29.5°
Drops below altitude 10° 01:31:15 10° 79° (E) 2,297 6.9 -29.2°
Sets 01:34:46 0° 103° (ESE) 3,222 7.5 -28.9°
